EN

Hourly Weather Dromore

Today, 4 December, Friday

Time Temperature Precipitation Wind Pressure Humidity
00:00 -2°C° 0 mm 4 mps 727 mmHg 88%
01:00 -1°C° 0 mm 4 mps 727 mmHg 88%
02:00 -1°C° 0 mm 4 mps 726 mmHg 88%
03:00 -1°C° 0 mm 5 mps 726 mmHg 88%
04:00 -1°C° 0 mm 5 mps 726 mmHg 86%
05:00 -1°C° 0 mm 6 mps 726 mmHg 85%
06:00 -1°C° 0 mm 7 mps 726 mmHg 83%
07:00 -1°C° 0.1 mm 7 mps 726 mmHg 82%
08:00 0°C° 0.1 mm 8 mps 725 mmHg 81%
09:00 0°C° 0.1 mm 8 mps 725 mmHg 79%
10:00 0°C° 0.6 mm 8 mps 725 mmHg 82%
11:00 +1°C° 0.6 mm 9 mps 725 mmHg 85%
12:00 +1°C° 0.6 mm 9 mps 725 mmHg 88%
13:00 +2°C° 0.3 mm 9 mps 725 mmHg 89%
14:00 +2°C° 0.3 mm 9 mps 725 mmHg 90%
15:00 +2°C° 0.3 mm 10 mps 725 mmHg 91%
16:00 +2°C° 0.3 mm 10 mps 726 mmHg 89%
17:00 +3°C° 0.3 mm 10 mps 726 mmHg 87%
18:00 +3°C° 0.3 mm 11 mps 727 mmHg 86%
19:00 +3°C° 0.2 mm 11 mps 728 mmHg 85%
20:00 +3°C° 0.2 mm 11 mps 728 mmHg 85%
21:00 +3°C° 0.2 mm 11 mps 729 mmHg 85%
22:00 +3°C° 0.1 mm 10 mps 730 mmHg 85%
23:00 +3°C° 0.1 mm 9 mps 730 mmHg 85%

Tomorrow, 5 December, Saturday

Time Temperature Precipitation Wind Pressure Humidity
00:00 +2°C° 0.1 mm 8 mps 731 mmHg 85%
01:00 +3°C° 0.1 mm 7 mps 731 mmHg 86%
02:00 +3°C° 0.1 mm 7 mps 731 mmHg 86%
03:00 +3°C° 0.1 mm 6 mps 731 mmHg 87%
04:00 +3°C° 0.1 mm 6 mps 732 mmHg 87%
05:00 +3°C° 0.1 mm 6 mps 733 mmHg 87%
06:00 +3°C° 0.1 mm 6 mps 733 mmHg 87%
07:00 +3°C° 0.1 mm 6 mps 734 mmHg 87%
08:00 +2°C° 0.1 mm 6 mps 735 mmHg 87%
09:00 +2°C° 0.1 mm 6 mps 735 mmHg 87%
10:00 +3°C° 0.4 mm 5 mps 736 mmHg 86%
11:00 +3°C° 0.4 mm 5 mps 737 mmHg 84%
12:00 +5°C° 0.4 mm 4 mps 738 mmHg 82%
13:00 +5°C° 0 mm 4 mps 738 mmHg 84%
14:00 +4°C° 0 mm 4 mps 739 mmHg 85%
15:00 +4°C° 0 mm 4 mps 739 mmHg 86%
16:00 +4°C° 0 mm 4 mps 740 mmHg 88%
17:00 +3°C° 0 mm 3 mps 740 mmHg 90%
18:00 +3°C° 0 mm 3 mps 741 mmHg 91%
19:00 +2°C° 0 mm 3 mps 741 mmHg 92%
20:00 +2°C° 0 mm 3 mps 741 mmHg 92%
21:00 +2°C° 0 mm 3 mps 742 mmHg 92%
22:00 +2°C° 0 mm 3 mps 742 mmHg 92%
23:00 +2°C° 0 mm 3 mps 742 mmHg 92%

Day after tomorrow, 6 December, Sunday

Time Temperature Precipitation Wind Pressure Humidity
00:00 +1°C° 0 mm 3 mps 742 mmHg 92%
01:00 +1°C° 0 mm 3 mps 742 mmHg 91%
02:00 +1°C° 0 mm 3 mps 742 mmHg 91%
03:00 +1°C° 0 mm 3 mps 742 mmHg 91%
04:00 +2°C° 0 mm 2 mps 742 mmHg 91%
05:00 +2°C° 0 mm 2 mps 742 mmHg 92%
06:00 +1°C° 0 mm 2 mps 742 mmHg 92%
07:00 +1°C° 0 mm 2 mps 742 mmHg 92%
08:00 +1°C° 0 mm 2 mps 742 mmHg 92%
09:00 +1°C° 0 mm 2 mps 742 mmHg 93%
10:00 +2°C° 0 mm 2 mps 742 mmHg 91%
11:00 +3°C° 0 mm 2 mps 742 mmHg 89%
12:00 +4°C° 0 mm 2 mps 742 mmHg 88%
13:00 +4°C° 0 mm 2 mps 742 mmHg 89%
14:00 +4°C° 0 mm 2 mps 742 mmHg 91%
15:00 +4°C° 0 mm 2 mps 741 mmHg 93%
16:00 +3°C° 0 mm 2 mps 742 mmHg 93%
17:00 +3°C° 0 mm 2 mps 742 mmHg 93%
18:00 +2°C° 0 mm 2 mps 742 mmHg 93%
19:00 +2°C° 0 mm 2 mps 742 mmHg 93%
20:00 +2°C° 0 mm 2 mps 742 mmHg 93%
21:00 +2°C° 0 mm 2 mps 741 mmHg 93%
22:00 +2°C° 0 mm 1 mps 741 mmHg 93%
23:00 +2°C° 0 mm 1 mps 741 mmHg 93%

7 December, Monday

Time Temperature Precipitation Wind Pressure Humidity
00:00 +2°C° 0 mm 1 mps 740 mmHg 93%
01:00 +2°C° 0 mm 1 mps 740 mmHg 93%
02:00 +2°C° 0 mm 1 mps 740 mmHg 93%
03:00 +2°C° 0 mm 1 mps 739 mmHg 93%
04:00 +2°C° 0 mm 1 mps 739 mmHg 93%
05:00 +2°C° 0 mm 1 mps 738 mmHg 92%
06:00 +2°C° 0 mm 2 mps 738 mmHg 92%
07:00 +2°C° 0 mm 2 mps 737 mmHg 90%
08:00 +2°C° 0 mm 2 mps 737 mmHg 88%
09:00 +2°C° 0 mm 3 mps 737 mmHg 87%
10:00 +3°C° 0.2 mm 3 mps 737 mmHg 87%
11:00 +4°C° 0.2 mm 4 mps 736 mmHg 87%
12:00 +5°C° 0.2 mm 5 mps 736 mmHg 87%
13:00 +3°C° 0.2 mm 5 mps 736 mmHg 87%
14:00 +3°C° 0.2 mm 5 mps 736 mmHg 87%
15:00 +3°C° 0.2 mm 5 mps 736 mmHg 87%
16:00 +3°C° 0.1 mm 5 mps 736 mmHg 88%
17:00 +3°C° 0.1 mm 4 mps 736 mmHg 88%
18:00 +3°C° 0.1 mm 4 mps 736 mmHg 89%
19:00 +3°C° 0 mm 4 mps 736 mmHg 88%
20:00 +3°C° 0 mm 3 mps 737 mmHg 88%
21:00 +3°C° 0 mm 3 mps 737 mmHg 88%
22:00 +2°C° 0 mm 3 mps 737 mmHg 88%
23:00 +2°C° 0 mm 3 mps 737 mmHg 89%

8 December, Tuesday

Time Temperature Precipitation Wind Pressure Humidity
00:00 +1°C° 0 mm 3 mps 737 mmHg 89%
01:00 +1°C° 0 mm 3 mps 737 mmHg 90%
02:00 +1°C° 0 mm 3 mps 737 mmHg 91%
03:00 +1°C° 0 mm 3 mps 737 mmHg 91%
04:00 0°C° 0 mm 3 mps 737 mmHg 91%
05:00 0°C° 0 mm 3 mps 738 mmHg 91%
06:00 0°C° 0 mm 3 mps 738 mmHg 91%
07:00 0°C° 0 mm 3 mps 738 mmHg 91%
08:00 +1°C° 0 mm 3 mps 738 mmHg 91%
09:00 +1°C° 0 mm 3 mps 738 mmHg 91%
10:00 +1°C° 0.1 mm 4 mps 738 mmHg 90%
11:00 +3°C° 0.1 mm 4 mps 738 mmHg 88%
12:00 +3°C° 0.1 mm 5 mps 738 mmHg 87%
13:00 +3°C° 0.1 mm 5 mps 738 mmHg 87%
14:00 +4°C° 0.1 mm 6 mps 738 mmHg 87%
15:00 +4°C° 0.1 mm 6 mps 739 mmHg 88%
16:00 +4°C° 0.1 mm 7 mps 739 mmHg 88%
17:00 +4°C° 0.1 mm 7 mps 739 mmHg 88%
18:00 +4°C° 0.1 mm 7 mps 739 mmHg 88%
19:00 +4°C° 0.2 mm 6 mps 739 mmHg 90%
20:00 +5°C° 0.2 mm 5 mps 739 mmHg 92%
21:00 +5°C° 0.2 mm 4 mps 739 mmHg 93%
22:00 +4°C° 0.1 mm 3 mps 740 mmHg 94%
23:00 +4°C° 0.1 mm 3 mps 740 mmHg 94%

9 December, Wednesday

Time Temperature Precipitation Wind Pressure Humidity
00:00 +4°C° 0.1 mm 3 mps 740 mmHg 95%
01:00 +4°C° 0 mm 3 mps 740 mmHg 95%
02:00 +4°C° 0 mm 2 mps 740 mmHg 95%
03:00 +4°C° 0 mm 2 mps 740 mmHg 95%
04:00 +4°C° 0 mm 2 mps 740 mmHg 95%
05:00 +4°C° 0 mm 2 mps 740 mmHg 94%
06:00 +3°C° 0 mm 2 mps 740 mmHg 94%
07:00 +5°C° 0.1 mm 1 mps 740 mmHg 94%
08:00 +5°C° 0.1 mm 1 mps 741 mmHg 94%
09:00 +5°C° 0.1 mm 1 mps 741 mmHg 94%
10:00 +5°C° 0 mm 1 mps 741 mmHg 92%
11:00 +5°C° 0 mm 2 mps 741 mmHg 91%
12:00 +6°C° 0 mm 2 mps 742 mmHg 89%
13:00 +6°C° 0.1 mm 2 mps 742 mmHg 90%
14:00 +5°C° 0.1 mm 3 mps 742 mmHg 91%
15:00 +5°C° 0.1 mm 3 mps 742 mmHg 92%
16:00 +4°C° 0.1 mm 3 mps 742 mmHg 93%
17:00 +4°C° 0.1 mm 3 mps 742 mmHg 93%
18:00 +4°C° 0.1 mm 2 mps 742 mmHg 94%
19:00 +4°C° 0.1 mm 2 mps 742 mmHg 94%
20:00 +4°C° 0.1 mm 2 mps 742 mmHg 94%
21:00 +4°C° 0.1 mm 2 mps 743 mmHg 94%
22:00 +3°C° 0.2 mm 3 mps 743 mmHg 93%
23:00 +4°C° 0.2 mm 4 mps 743 mmHg 92%
Show more

We Need Your Consent

Meteoprog and our Service Providers may store and access personal data such as cookies, device identifiers or other similar technologies on your device and process such data to personalise content and ads, as well as provide social media features and to analyse the traffic.

  • Store and/or access information on your device

    Cookies, device identifiers or other information can be stored or accessed on your device for the purposes indicated above.

  • Personalised ads and content, ad and content measurement, audience insights, and products development

    Ads and content can be personalised based on a profile. More data can be added to better personalise ads and content. Ad and content performance can be measured. Insights about the audience who saw the ads and content can be derived. Such data can be used to develop or improve user’s experience, systems and software.

By clicking ‘I Agree’ you will allow the use of indicated cookies, device identifiers, web beacons or other similar technologies. Your settings can be changed in the browser on your device.

For certain purposes, legitimate interests may be relied on, rather than consent. You can read more about this in our Privacy and Cookie Policy.